STARLINK-35454 (66236 NORAD) Tracking and Keplerian Element Data

This shows tracking and keplerian element data for the satellite.

Feedback or suggestion? Click here.




ElementValue
Catalog66236
NameSTARLINK-35454
Epoch Orbit889
Epoch Day354.11295302
Epoch Year2025
RAAN294.8968
Inclination53.1621
Eccentricity0.0001367
Argument of Perigee92.1236
Mean Anonmoly267.9926
Mean Motion15.39575365
Decay Rate6.343E-05
L11 66236U 25245C 25354.11295302 .00006343 00000+0 16868-3 0 9990
L22 66236 53.1621 294.8968 0001367 92.1236 267.9926 15.39575365 8894



Live tracking and technical data element details for STARLINK-35454 (NORAD 66236). STARLINK-35454 can be tracked NOW for your location showing map with azimuth and elevation plus other details from your city location.







IsCatalogInMostPopularTable: catalog: 66236, numindb: 11
Update: records affected: 1



GetName: 66236 STARLINK-35454

Hit Count: updated at: Tue, 21 Apr 2026 20:47:09 GMT